Location: Fort Wayne
(41.1310°N, 85.1290°W)
Time: 03:46:44
(UTC-04:00)

Iridium 37 - Visible Passes

Search period start: 01 August 2015 00:00
Search period end: 11 August 2015 00:00
Orbit: 776 x 779 km, 86.4° (Epoch: 31 July)

Date Brightness Start Highest point End Pass type
(mag) Time Alt. Az. Time Alt. Az. Time Alt. Az.
01 Aug 5.5 21:22:09 10° S 21:27:21 81° E 21:32:35 10° N visible
01 Aug 8.5 23:07:00 10° W 23:08:54 12° WNW 23:10:29 10° NW visible
02 Aug 8.0 22:30:56 10° SW 22:34:55 21° WNW 22:38:47 10° NNW visible
03 Aug 7.1 21:56:16 10° SSW 22:01:06 38° W 22:05:56 10° NNW visible
04 Aug 5.9 21:22:16 10° S 21:27:27 71° W 21:32:41 10° N visible
05 Aug 8.4 22:32:14 10° WSW 22:35:16 15° WNW 22:38:04 10° NW visible
06 Aug 7.8 21:56:57 10° SW 22:01:21 27° WNW 22:05:42 10° NNW visible
07 Aug 6.7 21:22:35 10° SSW 21:27:37 48° W 21:32:39 10° N visible
09 Aug 8.3 21:57:57 10° WSW 22:01:40 19° WNW 22:05:13 10° NNW visible
10 Aug 7.5 21:23:06 10° SW 21:27:49 33° W 21:32:31 10° NNW visible
